This demonstration page uses our WeatherBlox Daily Observations layout. Learn more.

38.80484, -77.04692

Hourly Observations for November 26, 2019

Temp ( °F °C ) Dew Point ( °F °C ) Humidity (%) Winds ( mph kmh ) Pressure ( in mb ) Visibility ( mi km ) Precip ( " mm )
12:52 am 00:52 Partly Cloudy 44 6.7 38 3.3 79 79 WSW 3 6 29.94 1014 10 16.0934 0 0
1:52 am 01:52 Mostly Cloudy 42 5.6 39 3.9 89 89 SSW 5 7 29.94 1014 10 16.0934 0 0
2:52 am 02:52 Partly Cloudy 42 5.6 37 2.8 82 82 WSW 3 6 29.95 1014 10 16.0934 0 0
3:52 am 03:52 Partly Cloudy 42 5.6 39 3.9 89 89 Calm 29.95 1014 10 16.0934 0 0
4:52 am 04:52 Partly Cloudy 40 4.4 37 2.8 89 89 SW 3 6 29.96 1015 10 16.0934 0 0
5:52 am 05:52 Partly Cloudy 40 4.4 37 2.8 89 89 Calm 29.98 1015 10 16.0934 0 0
6:52 am 06:52 Mostly Clear 38 3.3 36 2.2 93 93 NE 6 9 30.01 1016 10 16.0934 0 0
7:52 am 07:52 Mostly Sunny 41 5 38 3.3 89 89 E 3 6 30.02 1017 10 16.0934 0 0
8:52 am 08:52 Sunny 44 6.7 40 4.4 85 85 SSE 3 6 30.06 1018 10 16.0934 0 0
9:52 am 09:52 Mostly Sunny 47 8.3 40 4.4 77 77 S 8 13 30.06 1018 10 16.0934 0 0
10:52 am 10:52 Mostly Sunny 50 10 41 5 71 71 S 9 15 30.05 1018 10 16.0934 0 0
11:52 am 11:52 Partly Cloudy 54 12.2 39 3.9 57 57 SSE 5 7 30.04 1017 10 16.0934 0 0
12:52 pm 12:52 Mostly Cloudy 58 14.4 39 3.9 50 50 S 3 6 30.02 1017 10 16.0934 0 0
1:52 pm 13:52 Partly Cloudy 61 16.1 41 5 48 48 SSW 9 15 30.01 1016 10 16.0934 0 0
2:52 pm 14:52 Mostly Cloudy 62 16.7 39 3.9 43 43 S 9 15 30.01 1016 10 16.0934 0 0
3:52 pm 15:52 Mostly Cloudy 60 15.6 40 4.4 47 47 S 7 11 30.01 1016 10 16.0934 0 0
4:52 pm 16:52 Mostly Cloudy 57 13.9 40 4.4 53 53 S 5 7 30.02 1017 10 16.0934 0 0
5:52 pm 17:52 Mostly Cloudy 54 12.2 43 6.1 67 67 Calm 30.03 1017 10 16.0934 0 0
6:52 pm 18:52 Mostly Cloudy 53 11.7 42 5.6 66 66 Calm 30.03 1017 10 16.0934 0 0
7:52 pm 19:52 Mostly Cloudy 52 11.1 43 6.1 72 72 S 3 6 30.04 1017 10 16.0934 0 0
8:52 pm 20:52 Mostly Cloudy 51 10.6 44 6.7 77 77 Calm 30.04 1017 10 16.0934 0 0
9:52 pm 21:52 Mostly Cloudy 52 11.1 42 5.6 69 69 S 5 7 30.02 1017 10 16.0934 0 0
10:52 pm 22:52 Mostly Cloudy 49 9.4 44 6.7 83 83 Calm 30.04 1017 10 16.0934 0 0
11:52 pm 23:52 Mostly Cloudy 47 8.3 42 5.6 83 83 Calm 30.03 1017 10 16.0934 0 0

Powered by AerisWeather